Weather in Kryukovo

Russia / Perm Krai     57°06′42″N   55°03′00″E
temp.,
°C
wind,
m/s
gust,
m/s
humid.,
%
clouds,
%
prec.,
mm/h
press.,
hPa
HPBL,
m
1 march, mon
mon123:00−15nne489590 0.2 1011295
02:00−16ne369689 0.1 1013192
05:00−18nne359778 0.1 1015121
08:00−19nne349971 0.0 101676
11:00−16ne359374 0.1 1018311
14:00−13nne228598 0.0 1017479
17:00−12nnw228899 0.1 1018399
20:00−17wsw129896 0.0 101720
2 march, tue
tue223:00−18sw349759 0.0 101638
02:00−19ssw599954 0.0 1014165
05:00−18ssw6129577 0.0 1011277
08:00−18s71296100 0.3 1008331
11:00−15s71394100 1.0 1005450
14:00−11s81393100 0.9 1001572
17:00−9s71393100 1.4 999551
20:00−8s71494100 0.8 997462
3 march, wed
wed323:00−7s71393100 1.3 996353
02:00−6s489597 0.4 994179
05:00−4wsw369798 0.8 994178
08:00−6wsw3697100 0.2 994175
11:00−5wnw349599 0.4 996317
14:00−4wnw4592100 0.4 996420
17:00−3w359599 0.5 997386
20:00−4wnw5996100 1.1 998513
4 march, thu
thu423:00−7nw6119399 1.4 999469
02:00−13wnw479793 0.1 999118
05:00−14wsw349886 0.1 100179
08:00−14wsw469889 0.1 1001109
11:00−10wsw489493 0.2 1001293
14:00−7sw6892100 0.2 1000561
17:00−7sw6989100 0.3 1000718
20:00−7s51194100 0.1 997533
5 march, fri
fri523:00−6ssw71494100 0.6 995768
02:00−4ssw71495100 0.8 990716
05:00−2sw61297100 2.5 988669
08:00−2wsw71396100 2.1 986825
11:00−6w81288100 2.8 9891048
14:00−6w101388100 0.3 9961063
17:00−7wnw91383100 0.4 1002949
20:00−11w5129199 0.0 1006334